Location: Bednik
(45.3500°N, 16.3833°E)
Time: 17:51:36
(UTC+00:00)

SL-27 R/B - Pass Details

Date: 08 August 2020
Orbit: 419 x 471 km, 74.7° (Epoch: 24 September)

Event Time Altitude Azimuth Distance (km) Brightness Sun altitude
Exits shadow 21:19:17 21° 28° (NNE) 1,002 4.5 -24.7°
Drops below altitude 10° 21:20:32 10° 24° (NNE) 1,514 5.5 -24.8°
Sets 21:22:36 0° 23° (NNE) 2,381 6.7 -25.0°
